CW7218 Weather Reports


time (UTC)temp
F
wind
direction
speed
knots
gust
knots
rain 1hr
in
rain 24hr
in
rain mn
in
humidity
%
barometer
mb
20260831220028 71 180 1.7 4.3 0.00 0.00 0.00 76 1023.6
20260831215028 71 135 0.9 3.5 0.00 0.00 0.00 75 1023.6
20260831214028 72 135 0.9 3.5 0.00 0.00 0.00 75 1023.5
20260831213028 72 135 2.6 6.1 0.00 0.00 0.00 75 1023.3
20260831212048 72 135 2.6 5.2 0.00 0.00 0.00 76 1023.3
20260831211028 72 180 3.5 6.1 0.00 0.00 0.00 77 1023.3
20260831210028 72 180 3.5 7.8 0.00 0.00 0.00 78 1023.1
20260831205048 72 180 3.5 7.0 0.00 0.00 0.00 79 1023.1
20260831204028 72 180 4.3 8.7 0.00 0.00 0.00 79 1023.0
20260831203028 72 203 6.1 9.6 0.00 0.00 0.00 79 1022.7
20260831202028 72 203 7.0 9.6 0.00 0.00 0.00 79 1022.5
20260831201028 73 203 5.2 10.4 0.00 0.00 0.00 78 1022.6
20260831200028 73 203 6.1 11.3 0.00 0.00 0.00 78 1022.2
20260831195028 73 180 6.1 11.3 0.00 0.00 0.00 78 1022.1
20260831194048 74 180 5.2 11.3 0.00 0.00 0.00 77 1022.0
20260831193028 74 203 6.1 10.4 0.00 0.00 0.00 76 1021.6
20260831192028 74 180 5.2 9.6 0.00 0.00 0.00 75 1021.5
20260831191028 74 203 6.1 10.4 0.00 0.00 0.00 75 1021.3
20260831190028 75 203 7.0 9.6 0.00 0.00 0.00 74 1020.9
20260831185028 75 180 4.3 9.6 0.00 0.00 0.00 74 1020.9
20260831184028 75 180 3.5 6.1 0.00 0.00 0.00 73 1020.8
20260831183028 75 180 4.3 7.0 0.00 0.00 0.00 73 1020.7
20260831182027 76 180 4.3 9.6 0.00 0.00 0.00 72 1020.7
20260831181027 76 158 3.5 7.0 0.00 0.00 0.00 71 1020.7
20260831180028 77 180 4.3 7.0 0.00 0.00 0.00 71 1020.5
20260831175047 77 180 6.1 11.3 0.00 0.00 0.00 70 1020.5
20260831174027 77 180 5.2 11.3 0.00 0.00 0.00 69 1020.4
20260831173027 78 180 7.0 12.2 0.00 0.00 0.00 68 1020.4
20260831172027 78 180 7.0 12.2 0.00 0.00 0.00 67 1020.2
20260831171027 79 0 7.8 13.9 0.00 0.00 0.00 66 1020.3
20260831170027 79 0 8.7 16.5 0.00 0.00 0.00 65 1020.2
20260831165047 79 158 7.8 14.8 0.00 0.00 0.00 64 1020.1
20260831164027 80 180 8.7 16.5 0.00 0.00 0.00 62 1020.0
20260831163047 81 180 8.7 15.6 0.00 0.00 0.00 60 1020.2
20260831162027 81 203 10.4 17.4 0.00 0.00 0.00 59 1020.2
20260831161027 81 0 11.3 18.2 0.00 0.00 0.00 59 1020.1
20260831160027 82 0 11.3 20.9 0.00 0.00 0.00 56 1020.0
20260831155027 83 0 10.4 16.5 0.00 0.00 0.00 53 1020.1
20260831154027 84 0 9.6 17.4 0.00 0.00 0.00 47 1020.1
20260831153027 86 0 7.8 13.9 0.00 0.00 0.00 42 1020.3
20260831152027 87 0 7.0 13.0 0.00 0.00 0.00 34 1020.0
20260831151027 86 0 7.0 14.8 0.00 0.00 0.00 37 1020.1
20260831150027 86 0 7.0 13.0 0.00 0.00 0.00 39 1020.1
20260831145047 86 0 7.0 15.6 0.00 0.00 0.00 37 1020.1
20260831144027 86 0 7.0 15.6 0.00 0.00 0.00 37 1020.2
20260831143027 86 0 7.0 13.0 0.00 0.00 0.00 39 1020.4
20260831142047 86 0 5.2 12.2 0.00 0.00 0.00 39 1020.5
20260831141027 85 135 4.3 11.3 0.00 0.00 0.00 39 1020.5
20260831140027 85 158 4.3 9.6 0.00 0.00 0.00 38 1020.7
20260831135027 85 135 5.2 13.9 0.00 0.00 0.00 39 1020.7
20260831134027 83 113 5.2 13.0 0.00 0.00 0.00 40 1020.8
20260831133027 83 113 5.2 11.3 0.00 0.00 0.00 41 1020.9
20260831132027 84 113 3.5 9.6 0.00 0.00 0.00 41 1021.0
20260831131049 84 135 4.3 10.4 0.00 0.00 0.00 41 1021.1
20260831130029 84 90 2.6 7.0 0.00 0.00 0.00 40 1021.3
20260831125029 83 135 4.3 10.4 0.00 0.00 0.00 40 1021.3
20260831124029 83 180 3.5 8.7 0.00 0.00 0.00 41 1021.5
20260831123029 82 158 2.6 7.0 0.00 0.00 0.00 40 1021.5
20260831122028 82 158 4.3 8.7 0.00 0.00 0.00 39 1021.6
20260831121029 82 0 5.2 10.4 0.00 0.00 0.00 38 1021.6
20260831120028 82 180 2.6 7.0 0.00 0.00 0.00 38 1021.8
20260831115049 81 135 4.3 8.7 0.00 0.00 0.00 39 1021.9
20260831114029 81 0 4.3 8.7 0.00 0.00 0.00 39 1021.9
20260831113049 81 158 2.6 7.0 0.00 0.00 0.00 39 1021.7
20260831112028 80 180 3.5 9.6 0.00 0.00 0.00 41 1021.9
20260831111029 80 180 3.5 8.7 0.00 0.00 0.00 43 1021.8
20260831110048 79 158 3.5 7.8 0.00 0.00 0.00 42 1021.9
20260831105028 78 180 4.3 8.7 0.00 0.00 0.00 43 1022.0
20260831104029 79 158 2.6 7.0 0.00 0.00 0.00 42 1022.0
20260831103028 79 158 3.5 10.4 0.00 0.00 0.00 42 1022.2
20260831102028 79 0 3.5 10.4 0.00 0.00 0.00 41 1022.1
20260831101028 79 158 2.6 6.1 0.00 0.00 0.00 42 1022.2
20260831100109 78 158 2.6 7.0 0.00 0.00 0.00 43 1022.1
20260831095028 77 180 3.5 7.0 0.00 0.00 0.00 46 1022.1
20260831094028 77 180 3.5 7.0 0.00 0.00 0.00 46 1022.1
20260831093028 77 203 1.7 5.2 0.00 0.00 0.00 47 1022.2
20260831092028 77 180 2.6 5.2 0.00 0.00 0.00 48 1022.2
20260831091028 77 180 3.5 6.1 0.00 0.00 0.00 48 1022.2
20260831090048 76 180 2.6 6.1 0.00 0.00 0.00 49 1022.1
20260831085028 76 0 3.5 7.0 0.00 0.00 0.00 50 1022.1
20260831084028 77 158 2.6 5.2 0.00 0.00 0.00 49 1022.0
20260831083028 77 158 1.7 4.3 0.00 0.00 0.00 48 1022.1
20260831082028 76 158 1.7 3.5 0.00 0.00 0.00 52 1022.0
20260831081028 76 158 1.7 4.3 0.00 0.00 0.00 53 1021.8
20260831080028 76 158 0.9 2.6 0.00 0.00 0.00 51 1021.8
20260831075028 75 68 0.9 2.6 0.00 0.00 0.00 54 1021.8
20260831074028 73 0 0.9 1.7 0.00 0.00 0.00 56 1021.6
20260831073048 72 45 0.9 3.5 0.00 0.00 0.00 58 1021.5
20260831072028 70 68 2.6 6.1 0.00 0.00 0.00 60 1021.3
20260831071028 70 68 2.6 5.2 0.00 0.00 0.00 60 1021.3
20260831070028 68 68 3.5 7.8 0.00 0.00 0.00 63 1021.2
20260831065048 67 45 4.3 7.8 0.00 0.00 0.00 64 1020.9
20260831064028 67 45 4.3 7.8 0.00 0.00 0.00 63 1020.8
20260831063028 67 45 5.2 7.8 0.00 0.00 0.00 63 1020.8
20260831062028 66 45 4.3 7.0 0.00 0.00 0.00 64 1020.7
20260831061028 66 23 5.2 7.8 0.00 0.00 0.00 65 1020.5
20260831060048 65 45 4.3 7.8 0.00 0.00 0.00 65 1020.6
20260831055027 65 23 6.1 8.7 0.00 0.00 0.00 65 1020.4
20260831054028 65 23 6.1 10.4 0.00 0.00 0.00 66 1020.4
20260831053027 65 45 6.1 9.6 0.00 0.00 0.00 66 1020.3
20260831052027 64 68 6.1 7.8 0.00 0.00 0.00 67 1020.1
20260831051028 65 45 4.3 7.0 0.00 0.00 0.00 65 1020.0
20260831050027 65 45 4.3 7.0 0.00 0.00 0.00 66 1020.1
20260831045028 65 45 4.3 7.0 0.00 0.00 0.00 65 1020.2
20260831044027 65 45 5.2 8.7 0.00 0.00 0.00 66 1020.2
20260831043027 65 45 6.1 8.7 0.00 0.00 0.00 66 1020.2
20260831042027 65 23 6.1 9.6 0.00 0.00 0.00 65 1020.2
20260831041048 65 23 6.1 10.4 0.00 0.00 0.00 65 1020.2
20260831040027 65 23 6.1 9.6 0.00 0.00 0.00 66 1020.4
20260831035027 65 45 7.8 10.4 0.00 0.00 0.00 65 1020.4
20260831034028 66 45 7.8 12.2 0.00 0.00 0.00 64 1020.3
20260831033027 66 68 7.0 10.4 0.00 0.00 0.00 64 1020.2
20260831032027 66 68 7.0 9.6 0.00 0.00 0.00 65 1020.2
20260831031027 66 45 7.0 10.4 0.00 0.00 0.00 63 1020.4
20260831030027 67 45 5.2 8.7 0.00 0.00 0.00 62 1020.3
20260831025027 67 45 6.1 9.6 0.00 0.00 0.00 63 1020.4
20260831024027 66 45 6.1 8.7 0.00 0.00 0.00 64 1020.4
20260831023027 66 23 5.2 9.6 0.00 0.00 0.00 64 1020.3
20260831022027 66 45 4.3 7.0 0.00 0.00 0.00 63 1020.3
20260831021026 66 45 4.3 7.0 0.00 0.00 0.00 63 1020.3
20260831020026 66 45 4.3 7.0 0.00 0.00 0.00 63 1020.4
20260831015026 67 45 5.2 7.8 0.00 0.00 0.00 62 1020.5
20260831014026 67 45 6.1 7.8 0.00 0.00 0.00 61 1020.4
20260831013046 68 23 4.3 7.0 0.00 0.00 0.00 60 1020.5
20260831012046 68 0 4.3 7.0 0.00 0.00 0.00 60 1020.4
20260831011026 68 45 3.5 5.2 0.00 0.00 0.00 60 1020.4
20260831010026 68 23 3.5 7.0 0.00 0.00 0.00 61 1020.4
20260831005046 68 0.0 3.5 0.00 0.00 0.00 60 1020.4
20260831004026 69 248 0.9 2.6 0.00 0.00 0.00 59 1020.2
20260831003026 69 23 5.2 7.8 0.00 0.00 0.00 59 1020.2
20260831002046 69 23 5.2 9.6 0.00 0.00 0.00 57 1020.2
20260831001046 69 23 5.2 8.7 0.00 0.00 0.00 57 1020.0
20260831000026 70 23 6.1 9.6 0.00 0.00 0.00 57 1020.3
20260830235026 70 0 6.1 9.6 0.00 0.00 0.00 58 1020.3
20260830234026 69 23 6.1 9.6 0.00 0.00 0.00 59 1020.4
20260830233046 69 23 6.1 11.3 0.00 0.00 0.00 60 1020.3
20260830232026 68 68 6.1 8.7 0.00 0.00 0.00 61 1020.4
20260830231026 68 45 5.2 7.8 0.00 0.00 0.00 60 1020.4
20260830230026 69 45 4.3 7.8 0.00 0.00 0.00 59 1020.4
20260830225026 69 23 6.1 10.4 0.00 0.00 0.00 58 1020.4
20260830224026 68 45 6.1 8.7 0.00 0.00 0.00 59 1020.3
20260830223026 69 45 4.3 8.7 0.00 0.00 0.00 58 1020.5
20260830222026 69 23 4.3 7.0 0.00 0.00 0.00 57 1020.4
20260830221028 70 68 3.5 6.1 0.00 0.00 0.00 57 1020.2